Home > Weather > Dubai > Past weeks

Flag for United Arab Emirates Weather for the Past 2 Weeks in Dubai, Dubai, United Arab Emirates

Now
63 °F

Passing clouds.


Feels Like: 63 °F
Forecast: 64 / 74 °F
Wind: 8 mph from South

Location: Dubai International Airport

Current Time: Feb 10, 2016 at 5:39:06 AM

Latest Report: Feb 10, 2016 at 5:00 AM


Visibility: N/A

Pressure: 30.04 "Hg

Humidity: 64%

Dew point: 50 °F

Location of DubaiLocation

Historic Weather in Dubai — Graph

°F

Dubai Temperature Yesterday

Maximum temperature yesterday: 73 °F (at 11:00 AM)
Minimum temperature yesterday: 63 °F (at 7:00 AM)
Average temperature yesterday: 68 °F

High & Low Weather Summary for the Past Weeks

 TemperatureHumidityPressure
High81 °F (Feb 8, 2:00 PM)77% (Feb 3, 5:00 AM)30.27 "Hg (Feb 3, 5:00 AM)
Low57 °F (Jan 31, 7:00 AM)12% (Feb 8, 2:00 PM)29.92 "Hg (Jan 27, 3:00 PM)
Average68 °F52%30.10 "Hg
* Reported Jan 26 4:00 AM — Feb 10 4:00 AM, Dubai, Weather by CustomWeather, © 2016

Note: Actual official high and low records may vary slightly from our data, if they occured in-between our weather recording intervals... More about our weather records

Advertising

Dubai Weather History for the Previous 24 Hours

 ConditionsComfort  
Time TempWeatherWind HumidityBarometerVisibility
4:00 AM
Wed, Feb 10
68 °FPassing clouds.8 mph53%30.04 "HgN/A
3:00 AM66 °FPassing clouds.9 mph60%30.04 "HgN/A
2:00 AM66 °FPassing clouds.10 mph60%30.04 "HgN/A
1:00 AM66 °FPassing clouds.9 mph60%30.04 "HgN/A
12:00 AM66 °FPassing clouds.10 mph60%30.04 "HgN/A
11:00 PM
Tue, Feb 9
68 °FPassing clouds.12 mph56%30.04 "HgN/A
10:00 PM68 °FClear.14 mph56%30.04 "Hg10 mi
9:00 PM68 °FClear.13 mph53%30.04 "Hg10 mi
8:00 PM68 °FClear.15 mph53%30.04 "Hg10 mi
7:00 PM68 °FClear.16 mph43%30.04 "Hg10 mi
6:00 PM70 °FSunny.14 mph46%30.04 "Hg10 mi
5:00 PM72 °FPassing clouds.18 mph47%30.01 "HgN/A
4:00 PM72 °FPassing clouds.13 mph50%30.01 "HgN/A
3:00 PM72 °FPassing clouds.16 mph50%30.04 "HgN/A
2:00 PM73 °FPassing clouds.17 mph53%30.04 "HgN/A
1:00 PM73 °FPassing clouds.14 mph53%30.07 "HgN/A
12:00 PM73 °FPassing clouds.15 mph53%30.09 "HgN/A
11:00 AM73 °FPassing clouds.12 mph61%30.09 "HgN/A
10:00 AM70 °FPassing clouds.6 mph50%30.09 "HgN/A
9:00 AM64 °FPassing clouds.5 mph37%30.09 "HgN/A
8:00 AM63 °FPassing clouds.7 mph39%30.07 "HgN/A
7:00 AM63 °FPassing clouds.3 mph39%30.04 "HgN/A
6:00 AM64 °FPassing clouds.3 mph34%30.04 "HgN/A
5:00 AM64 °FPassing clouds.3 mph32%30.01 "HgN/A
Weather by CustomWeather, © 2016

See weather overviewHow to use our weather pages